TimeEDT,TemperatureF,Dew PointF,Humidity,Sea Level PressureIn,VisibilityMPH,Wind Direction,Wind SpeedMPH,Gust SpeedMPH,PrecipitationIn,Events,Conditions,WindDirDegrees,DateUTC
12:53 AM,61.0,55.0,81,30.13,10.0,Calm,Calm,-,N/A,,Overcast,0,2012-10-27 04:53:00
1:53 AM,61.0,55.0,81,30.10,10.0,Calm,Calm,-,N/A,,Overcast,0,2012-10-27 05:53:00
2:53 AM,61.0,55.0,81,30.09,10.0,Calm,Calm,-,N/A,,Overcast,0,2012-10-27 06:53:00
3:53 AM,60.1,55.0,83,30.06,9.0,Calm,Calm,-,N/A,,Overcast,0,2012-10-27 07:53:00
4:53 AM,60.1,55.0,83,30.06,9.0,Calm,Calm,-,N/A,,Overcast,0,2012-10-27 08:53:00
5:53 AM,60.1,55.9,86,30.06,9.0,Calm,Calm,-,N/A,,Overcast,0,2012-10-27 09:53:00
6:53 AM,60.1,55.9,86,30.06,5.0,Calm,Calm,-,N/A,,Overcast,0,2012-10-27 10:53:00
7:53 AM,59.0,55.9,90,30.07,5.0,East,3.5,-,N/A,,Overcast,80,2012-10-27 11:53:00
8:53 AM,60.1,55.0,83,30.06,5.0,Calm,Calm,-,N/A,,Haze,0,2012-10-27 12:53:00
9:53 AM,62.1,55.0,78,30.05,5.0,East,3.5,-,N/A,,Haze,80,2012-10-27 13:53:00
10:53 AM,63.0,55.0,75,30.05,5.0,East,5.8,-,N/A,,Haze,100,2012-10-27 14:53:00
11:53 AM,63.0,54.0,72,30.04,6.0,ENE,3.5,-,N/A,,Haze,70,2012-10-27 15:53:00
12:41 PM,62.6,53.6,72,30.00,7.0,ENE,4.6,-,N/A,,Overcast,70,2012-10-27 16:41:00
12:50 PM,62.6,53.6,72,30.00,8.0,ENE,4.6,-,N/A,,Overcast,70,2012-10-27 16:50:00
12:53 PM,64.0,54.0,70,30.01,9.0,East,6.9,-,N/A,,Overcast,80,2012-10-27 16:53:00
1:53 PM,64.0,52.0,65,29.99,10.0,East,8.1,-,N/A,,Overcast,90,2012-10-27 17:53:00
2:53 PM,64.9,52.0,63,29.98,10.0,ESE,5.8,-,N/A,,Mostly Cloudy,110,2012-10-27 18:53:00
3:53 PM,64.0,52.0,65,29.98,10.0,ESE,5.8,-,N/A,,Overcast,110,2012-10-27 19:53:00
4:53 PM,63.0,52.0,67,29.98,10.0,East,9.2,-,N/A,,Overcast,100,2012-10-27 20:53:00
5:53 PM,62.1,51.1,67,29.98,10.0,East,6.9,-,N/A,,Clear,90,2012-10-27 21:53:00
6:53 PM,59.0,51.1,75,29.98,10.0,Calm,Calm,-,N/A,,Clear,0,2012-10-27 22:53:00
7:53 PM,60.1,51.1,72,29.98,10.0,Calm,Calm,-,N/A,,Clear,0,2012-10-27 23:53:00
8:53 PM,59.0,51.1,75,29.97,10.0,Calm,Calm,-,N/A,,Clear,0,2012-10-28 00:53:00
9:53 PM,59.0,51.1,75,29.96,10.0,ENE,3.5,-,N/A,,Clear,60,2012-10-28 01:53:00
10:53 PM,59.0,52.0,78,29.95,10.0,NE,3.5,-,N/A,,Clear,40,2012-10-28 02:53:00
11:53 PM,57.9,52.0,81,29.94,10.0,NE,4.6,-,N/A,,Clear,40,2012-10-28 03:53:00